Find Starlink 32837

NORAD ID: 62812 Int'l Des: 2025-018 Owner: SPXS Country: US Constellation: starlink operational
LEOCIRCULAR

Live Position

Loading 3D Globe...

About Starlink 32837

Description loading...

Upcoming Passes

Passes for default location (London). Set your location on the main map for personalized predictions.

Altitude History

Loading altitude history...

Two-Line Element Set

1 62812U 25018G 26125.20715257 .00036530 00000-0 12387-2 0 9990
2 62812 53.1584 46.9366 0001169 80.6336 279.4797 15.30220361 71831
Epoch: May 5, 2026 • Age: 7 hours

Current Status

Altitude 485.4 km
Velocity 7.62 km/s
Sub-Earth Point -31.44°S, 153.76°W
Launch Date Jan 24, 2025
Age 1.2 years
Type internet

Technical Details

Classification Payload
Mass 730.00 kg
Dry Mass 700.00 kg
Total Mass 730.00 kg
Length 0.30 m
Diameter 4.10 m
Span 29.00 m
Shape Box + pan
Manufacturer SPXS
Bus Type Starlink V2M
Phase Status In Orbit
Owner/State SPXS/US

Most Searched